Wind_Speed
41 42 43 44 45 45 46 48 49 51 52 53 55 56 58 60 62 64 66 68 70 72 73 75 76 78 79 80 81 81 80 81 81 77 75 75 74 73 72 71 70 70 70
43 44 45 46 46 47 48 50 51 53 54 56 57 59 61 63 65 67 69 71 73 74 75 77 78 79 79 79 78 77 76 75 76 73 69 67 66 65 65 64 63 63 62
45 45 46 47 48 49 51 52 54 55 57 58 60 62 64 66 68 70 72 73 74 76 77 78 78 78 77 76 74 73 71 70 69 67 63 60 60 59 59 58 58 58 58
46 47 48 49 51 52 53 55 56 58 59 61 63 65 67 69 71 72 74 75 76 77 78 78 77 75 74 72 70 67 66 64 63 61 58 56 55 54 55 54 53 53 53
48 50 51 52 53 54 55 57 58 60 61 63 65 67 69 71 73 74 76 77 77 77 76 75 73 71 69 67 65 62 61 60 58 57 55 53 51 50 50 50 50 49 48
51 52 53 54 55 56 58 59 60 62 63 65 67 69 71 73 75 76 78 78 77 76 74 71 68 66 64 62 60 58 57 56 54 53 52 50 48 48 48 48 47 47 46
52 53 54 55 56 58 60 61 62 63 65 67 69 71 73 74 76 77 78 78 76 73 71 68 65 62 60 58 56 54 53 52 51 51 50 48 47 47 47 46 47 46 45
53 54 55 57 58 59 61 62 64 66 67 69 71 73 74 76 77 77 77 76 73 70 67 65 62 59 57 54 52 50 48 48 49 49 48 47 47 46 46 46 46 46 44
54 55 57 58 59 61 62 64 66 68 69 71 73 75 76 76 76 76 75 73 69 66 64 61 58 56 53 51 49 47 46 46 47 47 47 47 46 46 46 46 45 45 43
55 56 58 59 61 62 64 66 68 70 71 73 75 76 77 76 75 74 73 71 67 64 60 57 55 52 50 48 47 46 45 45 45 44 44 45 45 45 45 45 45 44 43
56 57 59 61 63 64 66 68 70 72 73 75 76 76 75 74 72 71 69 67 64 61 57 54 51 49 47 46 46 46 45 44 43 43 42 42 42 42 42 43 43 43 42
57 59 60 62 64 66 68 70 72 74 75 76 75 74 73 71 70 68 66 64 61 58 54 50 47 46 45 44 44 44 44 43 42 41 40 39 39 39 39 39 40 40 39
59 61 63 64 66 68 70 72 74 75 76 75 75 73 71 69 67 65 62 60 57 54 51 47 45 44 42 42 42 41 41 40 40 39 38 37 37 36 36 35 35 35 35
61 63 64 66 68 70 72 74 75 75 75 74 73 72 69 66 64 61 58 55 52 49 47 44 43 42 41 40 39 39 39 38 38 38 37 36 35 34 34 33 32 32 31
63 64 66 68 70 72 73 74 74 74 74 73 72 70 68 64 61 58 55 51 48 46 43 41 39 39 38 37 37 37 37 37 37 36 35 34 33 32 31 31 30 28 27
65 67 69 71 72 73 74 74 73 73 72 70 69 67 65 62 58 54 51 48 45 43 42 39 38 37 36 36 36 35 36 36 35 34 33 32 31 30 29 28 27 27 26
67 69 71 72 74 75 75 75 73 70 69 67 65 63 61 58 55 51 48 46 43 42 40 38 37 36 36 35 34 34 34 34 34 33 32 31 30 28 27 27 26 26 26
70 71 73 74 75 76 75 74 73 71 67 63 61 59 57 54 51 48 46 44 41 40 38 37 36 36 35 34 33 33 33 33 32 31 31 30 29 28 27 27 27 27 27
72 73 75 76 76 75 74 73 71 68 65 61 58 55 53 50 47 45 44 42 40 38 37 36 36 35 34 33 33 33 32 32 31 30 30 29 29 28 28 28 28 28 28
74 75 76 76 75 74 73 71 68 65 62 59 55 52 49 46 44 42 41 40 39 37 35 35 35 34 34 33 33 32 31 31 31 30 29 29 29 29 28 28 28 28 28
76 76 76 75 74 73 71 68 65 62 59 55 52 49 47 44 42 40 39 38 36 35 34 34 34 34 33 33 32 31 31 31 30 30 29 29 29 29 29 29 30 30 29
77 76 75 74 72 70 67 64 62 58 55 52 49 45 44 42 40 39 37 36 35 34 34 34 33 33 32 31 31 30 30 30 30 30 30 30 30 30 30 30 30 30 30
76 74 73 71 69 67 64 61 58 55 52 49 46 43 41 40 38 37 36 34 33 33 33 33 32 32 31 31 31 30 30 30 30 30 30 30 30 30 30 30 30 31 31
74 72 71 69 66 63 59 56 53 51 48 45 43 41 39 38 36 35 34 32 32 32 32 32 31 30 30 30 30 30 30 30 31 31 30 30 30 30 31 31 31 31 31
71 70 68 65 62 58 55 52 49 47 44 42 40 38 37 36 35 33 32 31 31 31 30 30 30 30 30 30 30 30 30 31 31 31 31 30 30 30 31 31 31 31 31
68 66 63 60 57 54 51 49 46 44 41 39 37 36 35 34 33 31 30 30 30 30 29 30 30 30 30 29 29 30 30 31 31 31 31 30 30 31 31 31 31 31 32
Wind_Direction
293 293 293 293 293 293 293 294 294 295 296 296 297 297 298 299 299 299 299 300 300 300 299 299 299 298 297 296 295 294 293 292 291 289 287 286 284 283 281 280 280 278 277
294 293 293 293 294 294 294 295 296 296 297 298 298 299 299 300 300 301 301 301 301 301 301 301 300 299 299 297 296 295 293 292 291 291 289 287 285 284 283 281 280 279 278
294 294 294 294 295 295 296 297 298 298 299 299 300 301 301 302 302 302 303 303 303 303 303 302 301 300 299 298 296 295 294 292 292 291 290 288 286 285 284 282 281 280 279
295 295 295 296 296 297 297 298 299 299 300 301 302 302 303 304 304 304 305 305 305 305 304 303 302 301 299 298 297 295 294 293 292 292 291 289 288 286 285 284 282 281 279
295 296 296 297 297 298 299 300 300 301 302 303 303 304 305 306 306 306 306 306 306 306 305 303 302 301 299 298 297 295 294 293 292 291 291 290 289 287 286 285 283 282 280
296 296 297 298 298 299 300 301 302 303 303 304 305 306 307 307 307 307 307 307 307 306 305 303 302 300 299 297 296 295 294 293 292 291 291 290 289 288 287 285 284 282 282
296 297 298 298 299 300 301 302 303 304 305 306 307 307 308 308 309 308 308 308 307 306 305 303 302 300 299 297 295 294 294 293 293 292 291 291 290 289 287 286 285 284 283
297 298 298 299 300 301 302 303 304 305 306 307 308 308 309 309 309 309 308 308 307 306 305 304 302 300 298 296 295 294 293 293 292 292 292 291 291 290 289 287 286 285 284
297 298 299 300 301 302 303 304 305 306 307 308 309 310 310 310 310 309 308 308 307 306 305 304 301 299 297 296 295 294 294 293 292 292 291 291 291 290 289 287 286 285 284
298 299 300 301 302 303 304 305 306 308 309 309 310 311 311 311 310 309 309 308 307 306 304 303 301 299 297 295 295 295 294 293 292 291 291 291 291 290 289 288 287 286 285
299 300 301 302 303 305 306 307 308 309 310 310 311 312 311 311 310 309 308 307 307 305 304 302 300 298 296 295 295 295 295 294 293 292 292 291 290 290 289 288 287 286 285
300 301 303 304 305 306 307 309 310 310 311 311 312 312 311 311 310 309 308 307 306 305 304 302 300 298 297 295 295 295 295 295 294 294 294 293 292 290 289 289 288 286 284
302 303 304 305 306 308 309 310 311 311 311 312 312 312 311 311 310 308 307 306 305 304 303 302 300 299 298 297 296 296 296 296 295 295 295 294 293 292 292 291 290 288 285
303 304 305 306 308 309 310 311 312 312 312 312 312 311 311 311 309 308 307 306 304 303 302 301 301 300 299 298 297 297 297 296 296 295 295 295 294 293 292 291 290 289 287
304 306 307 308 309 310 311 312 312 312 312 312 312 311 311 310 309 308 307 306 304 302 301 300 300 299 299 298 297 297 296 296 296 296 296 295 294 293 292 291 289 289 287
306 307 308 309 309 310 311 311 312 312 312 312 311 311 310 310 309 308 307 306 305 303 302 301 300 300 300 299 298 297 297 298 297 296 296 295 294 293 292 290 289 288 286
307 308 308 309 310 311 311 311 312 312 311 311 310 310 309 309 309 307 306 306 305 303 302 301 301 301 301 300 299 299 299 299 298 296 296 295 293 292 291 290 289 288 287
308 309 309 310 311 311 311 311 312 312 311 310 309 309 308 308 308 306 305 305 304 303 302 301 301 301 301 300 301 301 301 300 298 297 295 294 292 290 289 289 288 288 286
308 309 310 310 311 311 311 311 311 311 311 310 309 308 307 307 307 305 305 305 304 303 302 301 301 301 301 300 301 301 301 300 299 297 295 293 292 291 290 289 288 287 286
308 309 310 310 310 310 310 310 310 310 309 309 309 308 306 306 305 304 304 304 303 302 301 301 301 300 300 300 300 300 300 300 299 297 295 293 292 292 291 290 289 287 286
308 309 309 309 310 310 310 309 309 309 309 308 308 307 306 306 305 304 303 303 302 301 301 301 301 300 300 300 300 299 299 299 299 298 296 294 293 291 290 289 288 287 285
308 309 309 309 309 309 309 309 308 308 308 308 307 306 306 306 305 305 304 303 302 301 301 301 301 300 299 299 299 299 298 298 299 298 297 295 293 292 290 289 288 287 286
308 308 309 309 309 308 308 308 307 307 307 307 306 305 305 305 304 304 303 302 302 302 302 302 301 299 298 298 298 298 298 299 299 299 298 296 294 293 292 290 288 287 286
308 308 308 308 308 308 307 307 307 307 306 305 304 304 304 304 304 304 303 302 302 302 303 303 302 300 299 298 297 297 298 299 300 300 299 297 295 294 293 291 289 287 286
307 307 308 308 307 307 307 307 306 306 305 304 303 304 304 304 304 304 302 302 302 303 303 303 303 302 300 299 297 297 299 300 301 301 300 298 297 296 294 293 290 288 287
307 307 307 307 307 306 306 306 306 305 304 303 303 303 303 304 304 303 302 302 303 303 303 303 303 303 302 300 298 298 300 300 301 301 300 299 298 296 295 294 292 290 289
Height
5727 5724 5720 5717 5713 5710 5706 5702 5698 5693 5688 5683 5678 5673 5667 5661 5655 5648 5641 5634 5627 5619 5611 5603 5595 5586 5578 5569 5560 5552 5544 5535 5530 5535 5527 5520 5513 5508 5505 5501 5498 5495 5494
5716 5713 5709 5706 5702 5698 5694 5689 5685 5680 5675 5669 5664 5658 5651 5645 5638 5630 5623 5615 5607 5599 5590 5581 5573 5563 5554 5545 5536 5528 5521 5512 5505 5505 5505 5497 5491 5486 5483 5480 5477 5474 5473
5705 5702 5698 5694 5690 5686 5681 5676 5671 5666 5661 5654 5648 5642 5635 5628 5620 5612 5604 5596 5587 5578 5569 5559 5550 5540 5531 5522 5514 5506 5499 5492 5485 5481 5481 5477 5472 5467 5463 5461 5458 5455 5454
5694 5690 5686 5682 5678 5673 5668 5663 5657 5652 5646 5639 5632 5625 5617 5609 5601 5593 5584 5576 5567 5557 5547 5537 5527 5517 5509 5501 5493 5486 5479 5473 5467 5462 5461 5458 5454 5450 5445 5443 5440 5438 5436
5682 5678 5674 5669 5665 5660 5654 5649 5643 5637 5630 5623 5616 5608 5600 5591 5582 5573 5564 5556 5546 5537 5526 5516 5506 5497 5488 5480 5473 5467 5461 5455 5450 5446 5443 5440 5438 5433 5429 5425 5423 5422 5421
5670 5666 5661 5656 5651 5646 5640 5634 5628 5621 5614 5607 5599 5591 5582 5572 5562 5553 5543 5534 5525 5515 5506 5496 5487 5478 5470 5462 5455 5449 5444 5438 5434 5430 5427 5424 5422 5418 5414 5410 5408 5406 5407
5658 5653 5648 5643 5637 5631 5625 5619 5612 5605 5598 5590 5582 5573 5564 5554 5543 5533 5522 5513 5504 5494 5485 5476 5468 5460 5452 5446 5440 5434 5429 5423 5418 5414 5411 5409 5405 5403 5399 5396 5393 5391 5391
5645 5640 5635 5629 5623 5617 5611 5604 5597 5589 5581 5573 5564 5555 5545 5535 5523 5513 5502 5493 5484 5475 5466 5457 5450 5443 5435 5429 5424 5420 5415 5410 5405 5400 5396 5394 5390 5387 5384 5381 5378 5377 5376
5632 5627 5621 5615 5609 5602 5596 5588 5581 5573 5564 5555 5546 5536 5526 5516 5503 5492 5482 5474 5465 5457 5448 5440 5432 5426 5420 5413 5409 5405 5402 5397 5392 5387 5383 5380 5376 5373 5369 5366 5364 5362 5361
5619 5613 5607 5600 5594 5587 5580 5572 5564 5555 5546 5537 5528 5517 5506 5496 5484 5473 5462 5454 5447 5440 5432 5424 5416 5410 5404 5399 5394 5390 5387 5383 5379 5375 5371 5367 5363 5360 5356 5353 5350 5347 5346
5605 5599 5593 5586 5579 5571 5564 5555 5546 5538 5529 5520 5510 5499 5488 5476 5466 5455 5444 5435 5428 5422 5416 5409 5402 5396 5390 5385 5380 5376 5372 5369 5365 5362 5358 5355 5351 5347 5343 5340 5337 5334 5332
5591 5585 5578 5571 5563 5555 5547 5538 5528 5519 5510 5500 5490 5481 5470 5458 5447 5437 5428 5418 5410 5404 5399 5393 5388 5382 5377 5372 5368 5363 5359 5355 5352 5348 5345 5342 5338 5335 5331 5328 5325 5321 5319
5577 5570 5563 5555 5547 5538 5529 5520 5511 5500 5490 5480 5470 5461 5453 5442 5431 5421 5412 5404 5396 5389 5384 5379 5374 5368 5364 5360 5355 5351 5347 5343 5339 5336 5333 5329 5326 5323 5319 5316 5313 5310 5308
5561 5554 5547 5539 5531 5522 5512 5502 5492 5482 5471 5461 5451 5442 5434 5425 5415 5405 5397 5390 5383 5376 5370 5366 5361 5356 5351 5347 5343 5339 5335 5331 5328 5324 5321 5318 5314 5311 5308 5305 5303 5300 5298
5546 5538 5530 5522 5513 5505 5496 5485 5474 5464 5451 5441 5432 5423 5414 5408 5399 5389 5381 5375 5369 5363 5358 5354 5349 5345 5340 5336 5332 5328 5324 5320 5317 5313 5310 5307 5304 5301 5298 5295 5293 5291 5289
5530 5522 5514 5505 5496 5486 5477 5469 5458 5446 5436 5424 5413 5404 5396 5389 5381 5374 5367 5361 5355 5350 5345 5341 5337 5333 5329 5325 5321 5317 5314 5310 5306 5302 5299 5296 5293 5290 5288 5285 5283 5281 5280
5513 5504 5496 5487 5477 5468 5458 5448 5441 5433 5421 5409 5398 5388 5380 5373 5366 5359 5353 5348 5343 5337 5333 5329 5325 5321 5317 5314 5310 5306 5303 5299 5295 5292 5289 5286 5283 5281 5279 5277 5275 5273 5271
5495 5487 5477 5468 5459 5449 5439 5429 5420 5411 5405 5397 5386 5374 5366 5359 5352 5346 5340 5336 5331 5326 5321 5318 5314 5310 5306 5303 5299 5296 5292 5288 5285 5282 5279 5276 5274 5271 5270 5268 5266 5264 5263
5478 5469 5459 5450 5440 5430 5420 5411 5401 5393 5385 5378 5371 5362 5353 5346 5340 5334 5328 5323 5319 5315 5311 5307 5303 5299 5296 5292 5289 5285 5282 5278 5275 5272 5269 5267 5264 5262 5260 5258 5256 5255 5253
5461 5451 5440 5431 5421 5412 5402 5393 5384 5376 5368 5360 5354 5347 5340 5334 5328 5323 5317 5312 5307 5303 5299 5296 5292 5288 5285 5282 5278 5275 5272 5269 5265 5262 5260 5257 5255 5253 5251 5249 5247 5245 5243
5442 5433 5422 5412 5403 5393 5384 5375 5367 5359 5352 5345 5339 5332 5325 5320 5315 5311 5306 5301 5296 5292 5289 5285 5281 5278 5274 5271 5268 5264 5262 5259 5256 5253 5250 5247 5245 5243 5241 5239 5237 5235 5233
5422 5413 5404 5394 5384 5375 5366 5358 5350 5343 5336 5330 5324 5319 5313 5307 5303 5298 5294 5289 5285 5281 5278 5274 5271 5267 5264 5260 5257 5254 5252 5249 5246 5243 5240 5238 5235 5233 5230 5228 5226 5224 5223
5403 5394 5385 5375 5366 5358 5350 5342 5334 5328 5321 5316 5310 5306 5301 5296 5291 5287 5282 5278 5275 5271 5267 5263 5260 5257 5253 5250 5247 5244 5242 5239 5236 5233 5230 5227 5225 5222 5220 5217 5215 5213 5212
5384 5375 5366 5358 5349 5341 5333 5327 5320 5313 5308 5302 5298 5293 5288 5284 5280 5276 5271 5268 5264 5261 5257 5253 5249 5246 5243 5240 5237 5235 5232 5229 5226 5223 5220 5217 5214 5212 5209 5207 5204 5202 5200
5366 5357 5348 5340 5332 5325 5318 5312 5306 5300 5295 5290 5285 5281 5277 5273 5269 5265 5261 5258 5254 5251 5247 5243 5240 5237 5234 5230 5228 5225 5222 5219 5216 5213 5210 5207 5204 5201 5198 5196 5193 5191 5189
5348 5339 5331 5323 5316 5310 5303 5298 5292 5287 5282 5278 5274 5270 5266 5263 5259 5255 5252 5248 5245 5241 5238 5234 5231 5227 5224 5221 5218 5215 5212 5209 5206 5202 5199 5196 5193 5190 5187 5185 5182 5180 5178